Regional Weather Roundup
Issued by NWS

Home | Current Version | Previous Version | Graphics & Text | Print | Product List | Glossary On
Versions: 1 2 3 4 5 6 7 8 9 10 11 12 13 14 15 16 17 18 19 20 21 22 23 24 25 26 27 28 29 30 31 32 33 34 35 36 37 38 39 40 41 42 43 44 45 46 47 48 49 50
280
ASUS43 KIND 091909
RWRIN

WEATHER ROUNDUP FOR INDIANA
NATIONAL WEATHER SERVICE INDIANAPOLIS IN
200 PM EST FRI DEC 09 2016

NOTE: "FAIR" INDICATES FEW OR NO CLOUDS BELOW 12,000 FEET WITH NO
SIGNIFICANT WEATHER AND/OR OBSTRUCTIONS TO VISIBILITY.

* - STATION DOES NOT REPORT WEATHER SUCH AS PRECIPITATION OR FOG.

+ - STATION NOT QUALITY CONTROLLED BY THE NATIONAL WEATHER SERVICE.
    USE DATA WITH CAUTION...ESPECIALLY DEWPOINT AND RELATIVE
    HUMIDITY OBSERVATIONS.

INZ001>003-010>013-019-020-092000-
NORTHWEST INDIANA

CITY           SKY/WX    TMP DP  RH WIND       PRES   REMARKS
GARY /AIRPORT/ CLOUDY    28  14  54 W12       30.51F WCI  18
KNOX *+        PTSUNNY   28  -6  22 W9G16     30.48F WCI  20
LA PORTE +     FLURRIES  25  17  72 W12       30.48S WCI  14
MICHIGAN CITY+ CLOUDY    28  18  64 W9        30.48F WCI  20
MONTICELLO +   CLOUDY    27  11  52 W9        30.50F WCI  17
RENSSELAER +   FLURRIES  28  19  69 NW12      30.51S WCI  18
VALPARAISO     CLOUDY    27  13  55 W9        30.49F WCI  18

$$

LMZ046-743>745-092000-
SOUTHERN LAKE MICHIGAN

STATION/POSITION TIME  TEMP    WIND        PRES    WAVE
                       AIR SEA DIR/SP/G            HT
                 (UTC) (F)     (DEG/KT/KT) (MB)    (FT)

$$

INZ004-005-014>016-021>024-092000-
NORTH CENTRAL INDIANA

CITY           SKY/WX    TMP DP  RH WIND       PRES   REMARKS
ELKHART        FLURRIES  27  21  80 W13       30.44F WCI  16
GOSHEN         MOSUNNY   28  18  66 W17       30.43F WCI  16
LOGANSPORT +   CLOUDY    28  16  59 W10       30.50S WCI  19
PERU/GRISSOM   FLURRIES  28  16  59 W14       30.46S WCI  17
ROCHESTER +    MOSUNNY   30  18  59 W10       30.47S WCI  21
SOUTH BEND     LGT SNOW  24  21  88 W12       30.46F FOG     WCI  13
WARSAW +       MOSUNNY   30  14  51 W14       30.44F WCI  20

$$

INZ006>009-017-018-025>027-092000-
NORTHEAST INDIANA

CITY           SKY/WX    TMP DP  RH WIND       PRES   REMARKS
ANGOLA *+      MOSUNNY   28  19  69 W12       30.39S WCI  18
AUBURN +       CLOUDY    30  21  69 W10G16    30.42F WCI  21
FORT WAYNE     CLOUDY    29  18  63 W16       30.45F WCI  17
HUNTINGTON +   PTSUNNY   27  17  63 W8        30.45S WCI  19
KENDALLVILLE + CLOUDY    28  20  72 W9G17     30.41F WCI  20

$$

INZ028-029-035-036-043>045-051>053-092000-
WEST CENTRAL INDIANA

CITY           SKY/WX    TMP DP  RH WIND       PRES   REMARKS
CRAWFORDSVL +  FLURRIES  24  18  77 W7        30.52F WCI  16
GREENCASTLE +  CLOUDY    27  18  69 W3        30.52F
LAFAYETTE      CLOUDY    26  17  68 W8        30.51F WCI  18
TERRE HAUTE    CLOUDY    27  13  55 W5        30.55F WCI  22

$$

INZ030>032-037>040-046>048-054>057-064-065-092000-
CENTRAL INDIANA

CITY           SKY/WX    TMP DP  RH WIND       PRES   REMARKS
ANDERSON       CLOUDY    25  18  74 W12       30.50F WCI  14
CP ATTERBURY + CLOUDY    28  14  54 SW8       30.53F WCI  20
COLUMBUS       CLOUDY    25  16  68 CALM      30.54F
FISHERS *+     CLOUDY    25  19  80 W8        30.50F WCI  16
FRANKFORT +    CLOUDY    28  18  66 NW8G16    30.51F WCI  20
GREENWOOD *+   CLOUDY    27  17  64 W8        30.51F WCI  19
INDIANAPOLIS   PTSUNNY   27  14  58 NW10      30.50F WCI  17
-EAGLE CREEK   CLOUDY    26  16  65 W10       30.50F WCI  16
KOKOMO +       CLOUDY    27  17  66 W15       30.49F WCI  15
MARION +       CLOUDY    26  19  77 W13       30.48F WCI  14
MT COMFORT *+  CLOUDY    27  16  63 W10       30.50F WCI  17
SHELBYVILLE    CLOUDY    27  15  61 W7        30.50F WCI  19
ZIONSVILLE +   CLOUDY    25  17  72 W10       30.50F WCI  15

$$

INZ033-034-041-042-049-050-058-059-092000-
EAST CENTRAL INDIANA

CITY           SKY/WX    TMP DP  RH WIND       PRES   REMARKS
MUNCIE         CLOUDY    26  18  71 W10       30.48F WCI  16

$$

INZ060-061-067>069-081>083-085>088-092000-
SOUTHWEST INDIANA

CITY           SKY/WX    TMP DP  RH WIND       PRES   REMARKS
EVANSVILLE     CLOUDY    31  14  49 MISG      30.60S
HUNTINGBURG *+ CLOUDY    27  16  63 NW5       30.58S WCI  21
WASHINGTON +   CLOUDY    26  16  67 W3        30.58S

$$

INZ062-063-066-070>080-084-089>092-092000-
SOUTH CENTRAL AND SOUTHEAST INDIANA

CITY           SKY/WX    TMP DP  RH WIND       PRES   REMARKS
BLOOMINGTON    CLOUDY    24  13  62 W5        30.53F WCI  18
MADISON *+     CLOUDY    27  12  54 W7        30.56S WCI  19
NORTH VERNON + CLOUDY    25  19  80 W6        30.54F WCI  18
SEYMOUR +      CLOUDY    28  12  50 CALM      30.55F

$$





USA.gov is the U.S. government's official web portal to all federal, state and local government web resources and services.